Flag for Sweden Weather past 2 weeks in Borås, Sweden

Now
48 °F

Partly sunny.


Feels Like: 42 °F
Forecast: 41 / 58 °F
Wind: 15 mph from Southwest

Location: Gothenburg / Landvetter

Current Time: May 22, 2015 at 1:11:09 PM

Latest Report: May 22, 2015 at 12:50 PM


Visibility: N/A

Pressure: 30.09 "Hg

Humidity: 87%

Dew point: 45 °F

Location of BoråsLocation

Historic Weather in Borås — Graph

°F

Borås temperature yesterday

Maximum temperature yesterday: 54 °F (at 12:20 PM)
Minimum temperature yesterday: 37 °F (at 1:50 AM)
Average temperature yesterday: 47 °F

Past Weeks' High & Low Weather Summary

 TemperatureHumidityPressure
High61 °F (May 11, 2:50 PM)100% (May 9, 4:20 AM)30.24 "Hg (May 9, 4:20 AM)
Low34 °F (May 9, 1:50 AM)33% (May 15, 1:20 PM)29.45 "Hg (May 19, 6:20 AM)
Average46 °F77%29.87 "Hg
* Reported May 7 11:20 AM — May 22 11:50 AM, Borås, Weather by CustomWeather, © 2015

Note: Actual official high and low records may vary slightly from our data, if they occured in-between our weather recording intervals... More about our weather records

Advertising

Borås weather history for previous 24 hours

 ConditionsComfort  
Time TempWeatherWind HumidityBarometerVisibility
11:50 AM
Fri, May 22
48 °FPartly sunny.17 mph82%30.12 "HgN/A
11:20 AM48 °FPartly sunny.17 mph82%30.12 "HgN/A
10:50 AM48 °FPartly sunny.14 mph82%30.12 "HgN/A
10:20 AM48 °FPartly sunny.14 mph82%30.12 "HgN/A
9:50 AM46 °FPartly sunny.15 mph87%30.12 "HgN/A
9:20 AM46 °FOvercast.15 mph82%30.12 "HgN/A
8:50 AM46 °FPartly sunny.12 mph87%30.12 "HgN/A
8:20 AM46 °FPartly sunny.13 mph87%30.12 "HgN/A
7:50 AM46 °FBroken clouds.12 mph87%30.12 "HgN/A
7:20 AM46 °FBroken clouds.12 mph87%30.12 "HgN/A
6:50 AM46 °FLow clouds.12 mph87%30.12 "HgN/A
6:20 AM46 °FMostly cloudy.10 mph87%30.12 "HgN/A
5:50 AM46 °FMostly cloudy.10 mph87%30.12 "HgN/A
5:20 AM46 °FPassing clouds.9 mph87%30.12 "HgN/A
4:50 AM45 °FPartly cloudy.9 mph93%30.12 "HgN/A
4:20 AM45 °FPartly cloudy.10 mph93%30.12 "HgN/A
3:50 AM45 °FPassing clouds.10 mph93%30.12 "HgN/A
3:20 AM45 °FMostly cloudy.8 mph87%30.12 "HgN/A
2:50 AM45 °FPartly cloudy.8 mph93%30.12 "HgN/A
2:20 AM45 °FOvercast.9 mph87%30.12 "HgN/A
1:50 AM43 °FPassing clouds.7 mph93%30.12 "HgN/A
1:20 AM43 °FPassing clouds.6 mph93%30.12 "HgN/A
12:50 AM43 °FPassing clouds.6 mph93%30.12 "HgN/A
12:20 AM45 °FClear.8 mph87%30.15 "HgN/A
11:20 PM
Thu, May 21
46 °FOvercast.7 mph82%30.15 "HgN/A
10:50 PM46 °FPassing clouds.9 mph82%30.12 "HgN/A
10:20 PM48 °FMostly cloudy.8 mph82%30.12 "HgN/A
9:50 PM48 °FBroken clouds.7 mph87%30.12 "HgN/A
9:20 PM48 °FPartly sunny.8 mph82%30.12 "HgN/A
8:50 PM50 °FBroken clouds.9 mph71%30.12 "HgN/A
8:20 PM50 °FBroken clouds.9 mph71%30.12 "HgN/A
7:50 PM50 °FBroken clouds.10 mph71%30.12 "HgN/A
7:20 PM50 °FScattered clouds.12 mph67%30.12 "HgN/A
6:50 PM52 °FScattered clouds.10 mph58%30.09 "HgN/A
6:20 PM52 °FScattered clouds.12 mph58%30.09 "HgN/A
5:50 PM54 °FBroken clouds.10 mph58%30.09 "HgN/A
5:20 PM52 °FPartly sunny.10 mph58%30.09 "HgN/A
4:50 PM52 °FScattered clouds.13 mph62%30.09 "HgN/A
4:20 PM52 °FPartly sunny.15 mph62%30.09 "HgN/A
3:50 PM52 °FPartly sunny.13 mph58%30.09 "HgN/A
3:20 PM50 °FPartly sunny.12 mph62%30.09 "HgN/A
2:50 PM52 °FPartly sunny.16 mph62%30.09 "HgN/A
2:20 PM54 °FScattered clouds.16 mph63%30.09 "HgN/A
1:50 PM54 °FScattered clouds.14 mph58%30.09 "HgN/A
1:20 PM54 °FScattered clouds.14 mph58%30.07 "HgN/A
Weather by CustomWeather, © 2015

See weather overviewHow to use our weather pages